Location: Ferintosh
(52.7647°N, 112.9692°W)
Time: 13:41:05
(UTC+00:00)

Transit 2A Rocket - Pass Details

Date: 27 May 2024
Orbit: 583 x 910 km, 66.7° (Epoch: 22 June)

Event Time Altitude Azimuth Distance (km) Brightness Sun altitude
Rises 13:17:51 0° 277° (W) 3,163 7.6 15.3°
Reaches altitude 10° 13:20:38 10° 293° (WNW) 2,302 7.1 15.7°
Maximum altitude 13:24:47 23° 344° (NNW) 1,678 6.9 16.3°
Drops below altitude 10° 13:29:13 10° 35° (NE) 2,473 8.5 16.9°
Sets 13:32:21 0° 50° (NE) 3,460 9.5 17.4°
